Location: Fort Wayne
(41.1310°N, 85.1290°W)
Time: 18:08:22
(UTC-04:00)

Cosmos 1953 - Visible Passes

Search period start: 22 April 2018 00:00
Search period end: 02 May 2018 00:00
Orbit: 541 x 558 km, 82.5° (Epoch: 22 April)

Date Brightness Start Highest point End Pass type
(mag) Time Alt. Az. Time Alt. Az. Time Alt. Az.
22 Apr 2.2 05:30:34 10° NNW 05:34:38 73° W 05:38:39 10° S visible
23 Apr 2.3 05:26:12 10° NNW 05:30:14 66° W 05:34:15 10° S visible
24 Apr 5.5 03:48:12 10° ENE 03:49:01 10° ENE 03:49:52 10° E visible
24 Apr 2.3 05:21:51 10° NNW 05:25:52 59° W 05:29:48 10° S visible
25 Apr 5.4 03:43:17 10° NE 03:44:42 11° ENE 03:46:06 10° E visible
25 Apr 2.4 05:17:29 10° NNW 05:21:28 53° W 05:24:30 16° SSW visible
26 Apr 5.3 03:38:34 10° NE 03:40:22 13° ENE 03:42:09 10° E visible
26 Apr 2.5 05:13:09 10° NNW 05:17:05 48° W 05:19:21 22° SSW visible
27 Apr 5.2 03:33:55 10° NE 03:36:01 14° ENE 03:38:06 10° ESE visible
27 Apr 2.7 05:08:49 10° NNW 05:12:42 44° W 05:14:19 28° SW visible
28 Apr 5.1 03:29:19 10° NE 03:31:40 15° ENE 03:33:43 11° ESE visible
28 Apr 2.8 05:04:28 10° NNW 05:08:18 40° W 05:09:23 32° SW visible
29 Apr 4.9 03:24:45 10° NNE 03:27:20 16° ENE 03:28:51 14° E visible
29 Apr 2.9 05:00:09 10° NNW 05:03:54 36° W 05:04:32 34° WSW visible
30 Apr 4.8 03:20:13 10° NNE 03:22:59 17° ENE 03:24:03 16° E visible
30 Apr 3.0 04:55:50 10° NNW 04:59:30 33° W 04:59:44 33° W visible
01 May 4.6 03:15:42 10° NNE 03:18:38 19° ENE 03:19:19 18° E visible
01 May 3.2 04:51:32 10° NNW 04:55:00 30° W 04:55:00 30° W visible
